GW0415 Weather Reports


Display with metric or nautical units.
time (UTC)temp
F
wind
direction
speed
MPH
gust
MPH
rain 1hr
in
rain 24hr
in
rain mn
in
humidity
%
barometer
mb
20260906165204 77 62 6.0 6.0 0.00 0.00 0.00 79 1018.2
20260906164703 77 15 0.0 5.0 0.00 0.00 0.00 80 1018.3
20260906164158 76 60 1.0 3.0 0.00 0.00 0.00 80 1018.3
20260906163654 76 209 1.0 5.0 0.00 0.00 0.00 81 1018.2
20260906163150 76 66 0.0 5.0 0.00 0.00 0.00 82 1018.3
20260906162647 75 8 0.0 5.0 0.00 0.00 0.00 82 1018.4
20260906162146 76 34 0.0 4.0 0.00 0.00 0.00 80 1018.4
20260906161641 75 124 2.0 5.0 0.00 0.00 0.00 82 1018.2
20260906161140 74 233 0.0 7.0 0.00 0.00 0.00 83 1018.4
20260906160639 74 168 0.0 5.0 0.00 0.00 0.00 84 1018.4
20260906160139 74 81 0.0 5.0 0.00 0.00 0.00 84 1018.7
20260906155636 74 220 2.0 5.0 0.00 0.00 0.00 85 1018.0
20260906155132 73 12 3.0 6.0 0.00 0.00 0.00 86 1018.3
20260906154627 73 5 1.0 6.0 0.00 0.00 0.00 86 1018.3
20260906154127 73 82 2.0 4.0 0.00 0.00 0.00 86 1018.2
20260906153625 72 324 2.0 3.0 0.00 0.00 0.00 87 1018.4
20260906153121 73 150 2.0 5.0 0.00 0.00 0.00 87 1018.5
20260906152615 72 90 0.0 4.0 0.00 0.00 0.00 88 1018.5
20260906152109 72 18 0.0 4.0 0.00 0.00 0.00 89 1018.9
20260906151604 72 107 2.0 5.0 0.00 0.00 0.00 88 1018.8
20260906151100 72 270 0.0 6.0 0.00 0.00 0.00 89 1018.4
20260906150555 72 47 3.0 4.0 0.00 0.00 0.00 88 1018.4
20260906150050 71 29 3.0 6.0 0.00 0.00 0.00 89 1018.6
20260906145549 71 68 2.0 4.0 0.00 0.00 0.00 89 1018.4
20260906145044 72 187 0.0 5.0 0.00 0.00 0.00 88 1018.6
20260906144538 72 54 1.0 7.0 0.00 0.00 0.00 89 1018.4
20260906144034 72 97 0.0 3.0 0.00 0.00 0.00 88 1018.4
20260906143528 72 90 0.0 6.0 0.00 0.00 0.00 89 1018.4
20260906143025 72 107 0.0 5.0 0.00 0.00 0.00 88 1018.3
20260906142519 72 309 0.0 9.0 0.00 0.00 0.00 87 1018.4
20260906142015 73 255 1.0 4.0 0.00 0.00 0.00 87 1018.3
20260906141514 73 90 0.0 3.0 0.00 0.00 0.00 87 1018.4
20260906141009 72 57 2.0 5.0 0.00 0.00 0.00 88 1018.3
20260906140503 72 352 0.0 8.0 0.00 0.00 0.00 89 1018.4
20260906140001 72 110 2.0 7.0 0.00 0.00 0.00 89 1018.3
20260906135459 72 54 3.0 4.0 0.00 0.00 0.00 89 1018.3
20260906134955 72 100 4.0 6.0 0.00 0.00 0.00 90 1018.3
20260906134450 72 106 4.0 4.0 0.00 0.00 0.00 89 1018.2
20260906133945 72 29 2.0 3.0 0.00 0.00 0.00 89 1017.9
20260906133441 72 78 2.0 3.0 0.00 0.00 0.00 89 1018.1
20260906132936 73 0 4.0 6.0 0.00 0.00 0.00 88 1017.9
20260906132431 72 45 3.0 5.0 0.00 0.00 0.00 89 1017.9
20260906131927 72 38 3.0 8.0 0.00 0.00 0.00 88 1018.0
20260906131422 73 144 2.0 5.0 0.00 0.00 0.00 88 1017.8
20260906130917 73 68 0.0 3.0 0.00 0.00 0.00 88 1018.0
20260906130416 72 12 2.0 4.0 0.00 0.00 0.00 88 1017.8
20260906125911 72 74 2.0 4.0 0.00 0.00 0.00 89 1017.9
20260906125408 72 84 0.0 4.0 0.00 0.00 0.00 90 1017.7
20260906124903 71 114 0.0 3.0 0.00 0.00 0.00 90 1017.8
20260906124359 71 106 3.0 3.0 0.00 0.00 0.00 91 1017.7
20260906123858 70 90 3.0 3.0 0.00 0.00 0.00 92 1017.7
20260906123353 70 117 2.0 4.0 0.00 0.00 0.00 92 1017.7
20260906122852 70 106 0.0 2.0 0.00 0.00 0.00 93 1018.0
20260906122347 70 32 2.0 2.0 0.00 0.00 0.00 93 1017.6
20260906121844 69 90 1.0 1.0 0.00 0.00 0.00 94 1017.7
20260906121340 69 107 0.0 3.0 0.00 0.00 0.00 94 1017.7
20260906120836 69 270 0.0 1.0 0.00 0.00 0.00 94 1017.4
20260906120331 69 69 0.0 2.0 0.00 0.00 0.00 94 1017.7
20260906115827 69 126 0.0 1.0 0.00 0.00 0.00 94 1017.6
20260906115323 69 90 0.0 0.0 0.00 0.00 0.00 94 1017.6
20260906114822 69 8 0.0 0.0 0.00 0.00 0.00 95 1017.6
20260906114317 69 60 0.0 0.0 0.00 0.00 0.00 94 1017.3
20260906113812 69 111 0.0 1.0 0.00 0.00 0.00 94 1017.4
20260906113311 69 90 0.0 0.0 0.00 0.00 0.00 94 1017.4
20260906112807 69 110 2.0 2.0 0.00 0.00 0.00 94 1017.3
20260906112306 69 123 2.0 5.0 0.00 0.00 0.00 94 1017.5
20260906111802 69 20 0.0 3.0 0.00 0.00 0.00 94 1017.3
20260906111301 69 172 0.0 2.0 0.00 0.00 0.00 94 1017.3
20260906110757 69 98 0.0 1.0 0.00 0.00 0.00 94 1017.4
20260906110253 70 109 0.0 3.0 0.00 0.00 0.00 94 1017.1
20260906105751 70 80 2.0 3.0 0.00 0.00 0.00 94 1017.1
20260906105242 70 0 0.0 5.0 0.00 0.00 0.00 94 1017.1
20260906104737 70 0 0.0 3.0 0.00 0.00 0.00 94 1017.2
20260906104236 70 57 0.0 4.0 0.00 0.00 0.00 94 1017.4
20260906103733 70 0 0.0 0.0 0.00 0.00 0.00 93 1017.1
20260906103228 70 180 0.0 1.0 0.00 0.00 0.00 93 1017.2
20260906102724 70 82 0.0 2.0 0.00 0.00 0.00 93 1017.1
20260906102223 70 252 2.0 2.0 0.00 0.00 0.00 93 1017.0
20260906101718 70 123 0.0 2.0 0.00 0.00 0.00 93 1017.3
20260906101213 70 95 2.0 3.0 0.00 0.00 0.00 93 1017.0
20260906100709 70 340 0.0 1.0 0.00 0.00 0.00 93 1017.1
20260906100209 70 74 0.0 1.0 0.00 0.00 0.00 93 1017.0
20260906095703 70 90 0.0 2.0 0.00 0.00 0.00 93 1016.9
20260906095159 71 270 0.0 1.0 0.00 0.00 0.00 93 1016.6
20260906094657 71 199 0.0 2.0 0.00 0.00 0.00 93 1016.5
20260906094153 71 90 0.0 2.0 0.00 0.00 0.00 93 1016.6
20260906093649 71 77 0.0 2.0 0.00 0.00 0.00 93 1016.5
20260906093144 71 106 0.0 2.0 0.00 0.00 0.00 93 1016.4
20260906092639 71 225 0.0 2.0 0.00 0.00 0.00 93 1016.4
20260906092139 71 117 3.0 3.0 0.00 0.00 0.00 92 1016.5
20260906091635 71 75 0.0 3.0 0.00 0.00 0.00 92 1016.1
20260906091132 71 15 0.0 5.0 0.00 0.00 0.00 92 1016.4
20260906090627 71 165 0.0 3.0 0.00 0.00 0.00 93 1016.3
20260906090127 71 90 0.0 0.0 0.00 0.00 0.00 93 1016.5
20260906085626 71 98 0.0 1.0 0.00 0.00 0.00 93 1016.1
20260906085120 71 107 2.0 2.0 0.00 0.00 0.00 93 1016.4
20260906084615 71 174 0.0 3.0 0.00 0.00 0.00 92 1016.4
20260906084114 71 206 2.0 5.0 0.00 0.00 0.00 92 1016.1
20260906083609 71 55 2.0 3.0 0.00 0.00 0.00 92 1016.3
20260906083109 71 106 2.0 3.0 0.00 0.00 0.00 91 1016.1
20260906082604 71 102 0.0 3.0 0.00 0.00 0.00 91 1016.3
20260906082100 71 140 0.0 2.0 0.00 0.00 0.00 91 1016.1
20260906081556 72 99 0.0 3.0 0.00 0.00 0.00 91 1016.1
20260906081051 72 174 0.0 4.0 0.00 0.00 0.00 91 1016.3
20260906080547 72 66 0.0 3.0 0.00 0.00 0.00 91 1016.3
20260906080038 72 32 0.0 6.0 0.00 0.00 0.00 91 1016.1
20260906075537 72 65 0.0 5.0 0.00 0.00 0.00 91 1016.0
20260906075032 72 23 0.0 3.0 0.00 0.00 0.00 91 1016.1
20260906074527 72 90 0.0 3.0 0.00 0.00 0.00 91 1016.0
20260906074025 72 90 0.0 3.0 0.00 0.00 0.00 91 1016.1
20260906073520 72 111 1.0 2.0 0.00 0.00 0.00 91 1016.4
20260906073017 73 90 0.0 2.0 0.00 0.00 0.00 90 1016.6
20260906072511 73 111 0.0 2.0 0.00 0.00 0.00 90 1016.5
20260906072008 73 132 0.0 4.0 0.00 0.00 0.00 90 1016.5
20260906071503 73 99 0.0 3.0 0.00 0.00 0.00 90 1016.6
20260906070958 73 103 0.0 3.0 0.00 0.00 0.00 90 1016.6
20260906070454 73 127 0.0 2.0 0.00 0.00 0.00 90 1016.6
20260906065950 73 106 0.0 2.0 0.00 0.00 0.00 89 1016.7
20260906065444 73 94 0.0 2.0 0.00 0.00 0.00 89 1016.8
20260906064939 73 97 0.0 1.0 0.00 0.00 0.00 89 1016.9
20260906064435 73 66 0.0 3.0 0.00 0.00 0.00 89 1016.6
20260906063930 73 120 0.0 2.0 0.00 0.00 0.00 89 1016.7
20260906063426 74 90 0.0 3.0 0.00 0.00 0.00 88 1016.7
20260906062921 74 107 4.0 4.0 0.00 0.00 0.00 88 1016.7
20260906062421 74 75 1.0 3.0 0.00 0.00 0.00 87 1016.7
20260906061916 74 85 0.0 2.0 0.00 0.00 0.00 87 1016.7
20260906061412 74 90 2.0 3.0 0.00 0.00 0.00 87 1016.6
20260906060906 74 110 0.0 2.0 0.00 0.00 0.00 86 1016.6
20260906060404 74 109 0.0 3.0 0.00 0.00 0.00 86 1016.9
20260906055859 74 84 1.0 3.0 0.00 0.00 0.00 86 1016.6
20260906055355 74 45 0.0 2.0 0.00 0.00 0.00 86 1016.7
20260906054850 74 90 0.0 0.0 0.00 0.00 0.00 87 1016.8
20260906054345 74 108 0.0 3.0 0.00 0.00 0.00 87 1016.6
20260906053841 74 99 0.0 3.0 0.00 0.00 0.00 87 1016.5
20260906053337 74 99 0.0 2.0 0.00 0.00 0.00 86 1016.6
20260906052832 74 254 0.0 1.0 0.00 0.00 0.00 86 1016.7
20260906052329 75 90 0.0 2.0 0.00 0.00 0.00 86 1016.8
20260906051825 75 90 0.0 4.0 0.00 0.00 0.00 85 1016.8
20260906051324 75 90 0.0 3.0 0.00 0.00 0.00 85 1016.7
20260906050820 75 75 0.0 1.0 0.00 0.00 0.00 86 1016.8
20260906050315 74 74 1.0 1.0 0.00 0.00 0.00 86 1016.8
20260906045814 74 114 0.0 0.0 0.00 0.00 0.00 86 1016.8
20260906045308 74 114 0.0 0.0 0.00 0.00 0.00 86 1016.8
20260906044805 74 74 0.0 2.0 0.00 0.00 0.00 86 1016.9
20260906044259 74 99 0.0 2.0 0.00 0.00 0.00 86 1016.8
20260906043755 74 111 0.0 2.0 0.00 0.00 0.00 86 1017.1
20260906043251 74 117 1.0 2.0 0.00 0.00 0.00 87 1017.2
20260906042751 74 117 0.0 0.0 0.00 0.00 0.00 86 1017.0
20260906042250 75 117 0.0 2.0 0.00 0.00 0.00 86 1017.1
20260906041745 75 109 0.0 3.0 0.00 0.00 0.00 86 1017.1
20260906041241 75 112 0.0 0.0 0.00 0.00 0.00 86 1017.0
20260906040736 75 119 0.0 0.0 0.00 0.00 0.00 86 1017.0
20260906040231 75 114 0.0 2.0 0.00 0.00 0.00 86 1017.1
20260906035726 75 0 0.0 1.0 0.00 0.00 0.00 85 1017.2
20260906035217 75 106 0.0 0.0 0.00 0.00 0.00 85 1017.1
20260906034716 74 109 0.0 2.0 0.00 0.00 0.00 86 1017.0
20260906034211 74 20 0.0 0.0 0.00 0.00 0.00 87 1017.1
20260906033706 74 20 0.0 0.0 0.00 0.00 0.00 87 1017.0
20260906033201 74 20 0.0 0.0 0.00 0.00 0.00 86 1017.1
20260906032658 75 20 0.0 0.0 0.00 0.00 0.00 86 1017.1
20260906032152 75 20 0.0 0.0 0.00 0.00 0.00 85 1017.2
20260906031648 75 20 0.0 1.0 0.00 0.00 0.00 84 1017.2
20260906031143 76 340 0.0 0.0 0.00 0.00 0.00 84 1017.0
20260906030642 76 340 0.0 0.0 0.00 0.00 0.00 84 1017.0
20260906030138 76 340 0.0 0.0 0.00 0.00 0.00 84 1017.2
20260906025637 76 340 0.0 0.0 0.00 0.00 0.00 83 1017.2
20260906025136 76 340 0.0 0.0 0.00 0.00 0.00 83 1017.1
20260906024631 76 99 0.0 0.0 0.00 0.00 0.00 83 1017.1
20260906024125 76 7 0.0 1.0 0.00 0.00 0.00 83 1017.2
20260906023621 76 195 0.0 0.0 0.00 0.00 0.00 83 1017.2
20260906023121 76 7 0.0 0.0 0.00 0.00 0.00 83 1017.1
20260906022616 76 7 0.0 0.0 0.00 0.00 0.00 83 1016.8
20260906022111 76 90 0.0 0.0 0.00 0.00 0.00 83 1016.8
20260906021608 76 105 0.0 1.0 0.00 0.00 0.00 83 1016.6
20260906021106 76 82 0.0 0.0 0.00 0.00 0.00 83 1016.4
20260906020605 76 106 0.0 0.0 0.00 0.00 0.00 83 1016.4
20260906020101 76 84 0.0 2.0 0.00 0.00 0.00 83 1016.4
20260906015559 76 0 0.0 3.0 0.00 0.00 0.00 83 1016.1
20260906015053 76 16 0.0 2.0 0.00 0.00 0.00 83 1015.9
20260906014548 77 353 0.0 2.0 0.00 0.00 0.00 82 1015.8
20260906014044 77 12 0.0 1.0 0.00 0.00 0.00 81 1015.6
20260906013539 77 352 0.0 3.0 0.00 0.00 0.00 81 1015.4
20260906013035 77 115 2.0 5.0 0.00 0.00 0.00 80 1015.4
20260906012530 77 188 0.0 3.0 0.00 0.00 0.00 80 1015.3
20260906012029 78 90 0.0 3.0 0.00 0.00 0.00 80 1015.4
20260906011526 78 99 3.0 3.0 0.00 0.00 0.00 80 1014.9
20260906011025 78 162 0.0 4.0 0.00 0.00 0.00 79 1014.8
20260906010520 78 0 1.0 6.0 0.00 0.00 0.00 79 1014.8
20260906010017 79 332 3.0 3.0 0.00 0.00 0.00 78 1014.8
20260906005516 79 84 2.0 4.0 0.00 0.00 0.00 78 1014.9
20260906005015 80 26 2.0 3.0 0.00 0.00 0.00 77 1014.9
20260906004509 80 246 0.0 7.0 0.00 0.00 0.00 76 1014.8
20260906004004 81 105 0.0 2.0 0.00 0.00 0.00 74 1014.5
20260906003459 81 42 3.0 4.0 0.00 0.00 0.00 72 1014.3
20260906002954 81 60 1.0 4.0 0.00 0.00 0.00 71 1014.4
20260906002449 82 82 2.0 3.0 0.00 0.00 0.00 69 1014.3
20260906001944 82 74 0.0 7.0 0.00 0.00 0.00 68 1014.2
20260906001440 82 109 3.0 4.0 0.00 0.00 0.00 67 1014.2
20260906000934 83 127 2.0 6.0 0.00 0.00 0.00 67 1014.3
20260906000433 83 90 3.0 5.0 0.00 0.00 0.00 66 1014.5
20260905235925 83 99 0.0 6.0 0.00 0.00 0.00 66 1014.3
20260905235424 83 225 2.0 5.0 0.00 0.00 0.00 66 1014.4
20260905234919 84 96 0.0 5.0 0.00 0.00 0.00 66 1014.4
20260905234415 84 138 3.0 5.0 0.00 0.00 0.00 66 1014.1
20260905233909 84 111 1.0 3.0 0.00 0.00 0.00 65 1014.3
20260905233405 84 102 3.0 6.0 0.00 0.00 0.00 64 1014.0
20260905232903 85 90 0.0 5.0 0.00 0.00 0.00 63 1013.9
20260905232400 85 6 0.0 5.0 0.00 0.00 0.00 63 1013.8
20260905231855 85 95 0.0 5.0 0.00 0.00 0.00 63 1014.1
20260905231350 85 116 3.0 3.0 0.00 0.00 0.00 63 1014.1
20260905230847 85 115 4.0 4.0 0.00 0.00 0.00 63 1013.7
20260905230344 86 99 1.0 4.0 0.00 0.00 0.00 62 1013.9
20260905225844 86 96 2.0 6.0 0.00 0.00 0.00 63 1013.8
20260905225339 86 23 0.0 5.0 0.00 0.00 0.00 62 1013.8
20260905224834 86 99 0.0 3.0 0.00 0.00 0.00 62 1013.6
20260905224330 86 112 2.0 6.0 0.00 0.00 0.00 61 1013.5
20260905223824 87 121 3.0 6.0 0.00 0.00 0.00 59 1013.7
20260905223322 87 355 0.0 5.0 0.00 0.00 0.00 58 1013.6
20260905222817 87 135 0.0 5.0 0.00 0.00 0.00 60 1013.9
20260905222316 87 101 3.0 3.0 0.00 0.00 0.00 59 1013.8
20260905221812 87 228 2.0 5.0 0.00 0.00 0.00 59 1013.9
20260905221309 87 32 3.0 7.0 0.00 0.00 0.00 60 1013.7
20260905220804 87 85 2.0 7.0 0.00 0.00 0.00 59 1013.9
20260905220300 87 114 3.0 6.0 0.00 0.00 0.00 59 1014.1
20260905215759 87 63 1.0 4.0 0.00 0.00 0.00 60 1014.1
20260905215255 87 0 2.0 4.0 0.00 0.00 0.00 61 1014.1
20260905214750 86 90 3.0 5.0 0.00 0.00 0.00 62 1014.1
20260905214246 86 14 1.0 8.0 0.00 0.00 0.00 63 1014.1
20260905213741 87 126 1.0 5.0 0.00 0.00 0.00 61 1014.1
20260905213238 87 15 1.0 8.0 0.00 0.00 0.00 62 1014.2
20260905212733 87 339 0.0 5.0 0.00 0.00 0.00 61 1013.8
20260905212232 86 90 0.0 6.0 0.00 0.00 0.00 63 1014.0
20260905211731 86 36 2.0 6.0 0.00 0.00 0.00 63 1014.2
20260905211227 86 354 3.0 9.0 0.00 0.00 0.00 64 1014.2
20260905210724 86 69 3.0 6.0 0.00 0.00 0.00 64 1014.0
20260905210223 86 77 2.0 7.0 0.00 0.00 0.00 64 1014.1
20260905205722 85 175 2.0 16.0 0.00 0.00 0.00 66 1014.2
20260905205217 86 79 2.0 5.0 0.00 0.00 0.00 63 1014.3
20260905204717 86 0 0.0 7.0 0.00 0.00 0.00 65 1014.5
20260905204212 85 73 2.0 7.0 0.00 0.00 0.00 66 1014.8
20260905203712 85 32 0.0 6.0 0.00 0.00 0.00 67 1015.0
20260905203208 84 90 0.0 6.0 0.00 0.00 0.00 68 1015.0
20260905202703 84 54 1.0 5.0 0.00 0.00 0.00 69 1015.1
20260905202158 83 166 2.0 7.0 0.00 0.00 0.00 70 1015.0
20260905201653 83 174 0.0 4.0 0.00 0.00 0.00 69 1015.0
20260905201153 83 105 1.0 5.0 0.00 0.00 0.00 70 1015.4
20260905200648 83 94 3.0 5.0 0.00 0.00 0.00 69 1015.3
20260905200144 83 103 1.0 4.0 0.00 0.00 0.00 70 1015.5
20260905195642 82 294 0.0 4.0 0.00 0.00 0.00 71 1015.7
20260905195137 83 154 2.0 4.0 0.00 0.00 0.00 69 1015.7
20260905194632 83 121 2.0 3.0 0.00 0.00 0.00 70 1015.9
20260905194132 83 116 3.0 5.0 0.00 0.00 0.00 70 1015.8
20260905193626 82 106 0.0 2.0 0.00 0.00 0.00 70 1016.1
20260905193121 82 126 0.0 3.0 0.00 0.00 0.00 71 1015.9
20260905192617 82 126 1.0 4.0 0.00 0.00 0.00 70 1016.3
20260905192113 82 69 0.0 4.0 0.00 0.00 0.00 71 1016.1
20260905191612 82 17 2.0 5.0 0.00 0.00 0.00 71 1016.0
20260905191111 82 180 0.0 2.0 0.00 0.00 0.00 72 1016.0
20260905190609 82 255 1.0 3.0 0.00 0.00 0.00 71 1015.9
20260905190109 82 26 3.0 3.0 0.00 0.00 0.00 72 1015.8
20260905185608 82 85 2.0 6.0 0.00 0.00 0.00 72 1015.9
20260905185102 82 354 0.0 2.0 0.00 0.00 0.00 73 1015.9
20260905184557 82 119 0.0 6.0 0.00 0.00 0.00 73 1016.1
20260905184055 82 111 0.0 3.0 0.00 0.00 0.00 73 1016.0
20260905183549 82 254 0.0 3.0 0.00 0.00 0.00 73 1016.1
20260905183045 81 278 0.0 2.0 0.00 0.00 0.00 74 1015.9
20260905182544 81 331 1.0 3.0 0.00 0.00 0.00 74 1016.3
20260905182038 81 109 0.0 3.0 0.00 0.00 0.00 74 1016.3
20260905181533 81 346 0.0 3.0 0.00 0.00 0.00 76 1016.1
20260905181033 80 141 3.0 3.0 0.00 0.00 0.00 76 1016.4
20260905180527 79 342 0.0 2.0 0.00 0.00 0.00 78 1016.3
20260905180023 78 0 1.0 3.0 0.00 0.00 0.00 79 1016.6
20260905175522 78 93 3.0 5.0 0.00 0.00 0.00 80 1016.4
20260905175018 78 90 2.0 4.0 0.00 0.00 0.00 79 1016.8
20260905174513 78 229 0.0 3.0 0.00 0.00 0.00 80 1016.6
20260905174009 78 94 3.0 4.0 0.00 0.00 0.00 78 1016.9
20260905173505 78 270 0.0 3.0 0.00 0.00 0.00 78 1016.8
20260905173000 78 228 2.0 3.0 0.00 0.00 0.00 79 1017.0
20260905172458 77 77 0.0 4.0 0.00 0.00 0.00 81 1016.9
20260905171954 77 319 0.0 3.0 0.00 0.00 0.00 81 1017.1
20260905171450 77 90 0.0 3.0 0.00 0.00 0.00 81 1017.1
20260905170946 76 90 0.0 5.0 0.00 0.00 0.00 84 1016.8
20260905170442 76 40 0.0 4.0 0.00 0.00 0.00 84 1017.0
20260905165941 75 8 0.0 5.0 0.00 0.00 0.00 85 1016.6
20260905165436 76 108 4.0 6.0 0.00 0.00 0.00 84 1016.9